User: anonymous
Location: Deer Lodge Site
(39.6809°N, 119.9392°W)
Time: 03:21:14
(UTC-07:00)
Language:

CZ-4C R/B - Orbit

View from above orbital plane
View from above orbital plane
View from above satellite
View from above satellite

Ground track
Ground track

The orbit data is extracted from the following two-line orbital elements,

1 36416U 10009D   14292.16022636 -.00000017  00000-0  67434-4 0  7696
2 36416 063.4497 348.3041 0291988 359.9537 000.1426 13.69426094231256
Epoch (UTC): 19 October 2014 03:50:43
Eccentricity: 0.0291988
inclination: 63.4497°
perigee height: 786 km
apogee height: 1217 km
right ascension of ascending node: 348.3041°
argument of perigee: 359.9537°
revolutions per day: 13.69426094
mean anomaly at epoch: 0.1426°
orbit number at epoch: 23125

The dashed part of the orbit path shows where the satellite is in the earth's shadow,  

DLR